ARIANE 5 R/B, 41749

Orbit data source: Space-Track

ARIANE 5 R/B, 41749 is space debris in HEO originally from a launch on Wed, 24 Aug 2016 UTC launched from the French Guiana (FRGUI). Debris objects in space refer to the collection of defunct objects orbiting the Earth. Examples of debris include non-operational satellites, rocket bodies, and fragments generated from explosions, collisions, or faulty payload assembly.

Loading next visibility...
Identifier
41749, 2016-053C
Orbit
HEO
Country
Flag of FRFR
Related business
Manufacturer
Airbus Safran
Mission
Spacecraft
Bus & Motor
ESC-A, Unknown motor
Mass
~5,000 kg wet, ~5,000 kg dry
Launch date (UTC)
2016-08-24 (10 years ago)
Launch vehicle
Unknown
Launch site
French Guiana (FRGUI)
Object type
Payload
Rocket body
Debris
Shape & HBR
Cyl + 1 Nozzle, 3.5 m
Radar Cross Section
41.627 m², Large (>1 m²)

Expand to show TLE details & history
Last TLE update: 16 hours ago

TLE from 16 hours ago
0 ARIANE 5 R/B
1 41749U 16053C   26166.16994507  .00000979  00000-0  47817-3 0  9997
2 41749   6.4205  30.0009 7116662 346.3529   1.7529  2.46691593 84356
Epoch: 2026-06-15T04:04Z
TLE epoch observation values (Epoch: 2026-06-15T04:04:43.254Z)
Latitude
0.00075°
Longitude
65.2732°
Altitude
388.248 km
Speed
10.029 km/s
True Right ascension
01h 59m 39s
True Declination
0° 00' 03"
Sunlit
Object was in daylight at epoch
Visualization orbit readout
Latitude
Unknown
Longitude
Unknown
Altitude
Unknown
Speed
Unknown
Apparent Right ascension
Unknown
Apparent Declination
Unknown
Sunlit
N/A
Visualization observer readout
Local Sidereal Time
06:35:43
Azimuth
Unknown
Elevation
Unknown
Doppler factor
Unknown
Orbital elements
Apogee altitude
33,233.192 km
Perigee altitude
294.475 km
Semi-major axis
23,141.971 km
Eccentricity
0.71167
Inclination
6.4205°
RAAN
30.0009°
Arg. of periapsis
346.3529°
True anomaly
14.67763°
Mean anomaly
1.7529°
Eccentric anomaly
6.05166°
Mean motion
0.61651 °/min
Orbital period
583.93 mins
BSTAR
0.00047817
Loading maneuver chart data...
Computing Atmospheric mass density...
Loading historical data...
Loading historical data...
Loading historical data...
Loading historical data...
Loading historical data...
Loading historical data...
Loading historical data...

Documentation

Showing up to 5 results
|